Printer-friendly version

IAU Minor Planet Center

Minor Planet Center

MPEC 2006-B83 : 2006 BF99

The following Minor Planet Electronic Circular may be linked-to from your own Web pages, but must not otherwise be redistributed electronically.


Read MPEC 2006-B82 Read MPEC 2006-B84


M.P.E.C. 2006-B83                                Issued 2006 Jan. 30, 13:00 UT

     The Minor Planet Electronic Circulars contain information on unusual
         minor planets and routine data on comets.  They are published
   on behalf of Commission 20 of the International Astronomical Union by the
          Minor Planet Center, Smithsonian Astrophysical Observatory,
                          Cambridge, MA 02138, U.S.A.

                  Supported in part by the Brinson Foundation
                  Supported in part by the TABASGO Foundation
             Prepared using the Tamkin Foundation Computer Network

                              MPC@CFA.HARVARD.EDU
          URL http://cfa-www.harvard.edu/iau/mpc.html  ISSN 1523-6714

                                   2006 BF99

Observations:
     K06B99F* C2006 01 28.26145 07 55 48.36 +24 16 41.7          20.0 V EB083G96
     K06B99F  C2006 01 28.26675 07 55 44.36 +24 15 17.0          19.8 V EB083G96
     K06B99F  C2006 01 28.27204 07 55 40.33 +24 13 51.8          20.3 V EB083G96
     K06B99F  C2006 01 28.27733 07 55 36.40 +24 12 27.3          20.6 V EB083G96
     K06B99F  C2006 01 28.30371 07 55 16.60 +24 05 24.8          20.5 V EB083G96
     K06B99F  C2006 01 28.30407 07 55 16.32 +24 05 18.0          21.1 V EB083G96
     K06B99F  C2006 01 28.30444 07 55 16.03 +24 05 12.7          20.6 V EB083G96
     K06B99F  C2006 01 28.30480 07 55 15.74 +24 05 06.6          20.8 V EB083G96
     K06B99F  C2006 01 28.33526 07 54 53.13 +23 56 59.9          20.7 V EB083G96
     K06B99F  C2006 01 28.33562 07 54 52.81 +23 56 53.5          20.5 V EB083G96
     K06B99F  C2006 01 28.33598 07 54 52.56 +23 56 48.1          19.8 V EB083G96
     K06B99F  C2006 01 28.33634 07 54 52.27 +23 56 42.1          19.9 V EB083G96
     K06B99F tC2006 01 28.90895 07 48 23.38 +21 28 21.9                 EB083246
     K06B99F tC2006 01 28.91038 07 48 22.37 +21 28 01.4                 EB083246
     K06B99F  C2006 01 28.97155 07 47 42.54 +21 12 37.1                 EB083J95
     K06B99F  C2006 01 28.98025 07 47 36.78 +21 10 26.4          19.4 R EB083J95
     K06B99F  C2006 01 29.04265 07 46 55.93 +20 54 53.5          20.1 R EB083J95
     K06B99F tC2006 01 29.13614 07 46 01.42 +20 32 05.7          20.5 V EB083291
     K06B99F tC2006 01 29.14160 07 45 58.03 +20 30 47.4          20.7 V EB083291
     K06B99F tC2006 01 29.14653 07 45 54.67 +20 29 32.1          21.0 V EB083291
     K06B99F  C2006 01 29.47926 07 42 30.70 +19 10 36.3          20.4 R EB083474
     K06B99F  C2006 01 29.48231 07 42 28.87 +19 09 52.6          20.3 R EB083474
     K06B99F  C2006 01 29.48537 07 42 27.04 +19 09 09.6          20.1 R EB083474
     K06B99F  C2006 01 29.48842 07 42 25.16 +19 08 26.3          20.9 R EB083474
     K06B99F  C2006 01 30.13828 07 36 25.14 +16 38 47.2          20.1 R EB083649
     K06B99F  C2006 01 30.14401 07 36 21.86 +16 37 31.8          20.2 R EB083649
     K06B99F  C2006 01 30.15192 07 36 17.57 +16 35 48.0          19.8 R EB083649
     K06B99F IC2006 01 30.17419 07 36 05.65 +16 30 51.8                 EB083734
     K06B99F IC2006 01 30.17763 07 36 03.58 +16 30 10.9          20.8 R EB083734
     K06B99F  C2006 01 30.18106 07 36 01.79 +16 29 24.7          19.9 R EB083734

Observer details:
246 Klet Observatory-KLENOT.  Observers M. Tichy, J. Ticha.  Measurer M. Tichy.
    1.06-m KLENOT Telescope + CCD.
291 LPL/Spacewatch II.  Observer J. V. Scotti.  1.8-m f/2.7 reflector + CCD.
474 Mount John Observatory, Lake Tekapo.  Observer A. C. Gilmore.  0.6-m f/7.6
    reflector + CCD.
649 Powell Observatory, Louisburg.  Observer R. Trentman.  0.75-m Newtonian
    reflector + CCD.
734 Farpoint Observatory.  Observer G. Hug.  0.7-m reflector + CCD.
G96 Mt. Lemmon Survey.  Observer E. J. Christensen.  Measurers E. C. Beshore,
    E. J. Christensen, G. J. Garradd, A. D. Grauer, R. E. Hill, R. A. Kowalski,
    S. M. Larson, R. H. McNaught.  1.5-m reflector + CCD.
J95 Great Shefford.  Observers P. Birtwhistle, A. Taylor, C. Sawyer, M. Morgan.
    0.40-m f/6.0 Schmidt-Cassegrain + CCD.

Orbital elements:
2006 BF99                                                Earth MOID = 0.0338 AU
Epoch 2006 Mar. 6.0 TT = JDT 2453800.5                  MPC
M  77.19870              (2000.0)            P               Q
n   0.69878054     Peri.   85.05569     +0.64452710     -0.55081559
a   1.2576955      Node   307.17965     +0.08551977     +0.74112743
e   0.3758394      Incl.   41.72427     +0.75978364     +0.38383892
P   1.41           H   23.9           G   0.15           U   8
Residuals in seconds of arc
060128 G96  0.4+  0.2+    060128 G96  0.1+  0.1+    060129 474  0.1+  0.2+
060128 G96  0.3+  0.5+    060128 G96  0.2-  0.2-    060129 474  0.4+  0.2-
060128 G96  0.4-  0.1+    060128 246 (0.8+  1.5+)   060129 474  0.9+  0.2+
060128 G96  0.3+  0.3+    060128 246 (0.0   2.5+)   060129 474  0.5+  0.2+
060128 G96  0.0   0.4+    060128 J95  0.1-  0.3+    060130 649 (2.1+  0.2-)
060128 G96  0.1-  0.6-    060128 J95  0.4-  0.1-    060130 649  0.2-  0.2-
060128 G96  0.3-  0.0     060129 J95  0.1+  0.2-    060130 649  0.2+  0.0
060128 G96  0.6-  0.4-    060129 291  0.2+  1.5+    060130 734 (2.2+  3.5-)
060128 G96  0.6+  0.4+    060129 291 (1.6+  3.1+)   060130 734  0.6-  0.7+
060128 G96  0.1-  0.3-    060129 291  1.3-  0.1-    060130 734  0.5+  0.5-

Ephemeris:
2006 BF99                a,e,i = 1.27, 0.38, 42                  q = 0.7869
Date    TT    R. A. (2000) Decl.     Delta      r     Elong.  Phase     V
2006 01 25    08 50.08   +40 26.0    0.115    1.092   158.1    19.6    20.4
2006 01 26    08 29.76   +35 15.1    0.118    1.098   163.6    14.7    20.3
2006 01 27    08 12.98   +30 12.6    0.123    1.105   167.2    11.4    20.3
2006 01 28    07 59.05   +25 27.8    0.129    1.111   167.9    10.7    20.3
2006 01 29    07 47.41   +21 06.3    0.136    1.117   166.1    12.3    20.5
2006 01 30    07 37.63   +17 10.0    0.144    1.123   162.9    14.9    20.8
2006 01 31    07 29.33   +13 39.0    0.153    1.130   159.4    17.9    21.0
2006 02 01    07 22.25   +10 31.7    0.163    1.136   156.0    20.7    21.3
2006 02 02    07 16.18   +07 46.1    0.173    1.142   152.7    23.3    21.5
2006 02 03    07 10.93   +05 19.7    0.184    1.148   149.7    25.6    21.7
2006 02 04    07 06.38   +03 10.3    0.195    1.154   147.0    27.7    21.9

Timothy B. Spahr             (C) Copyright 2006 MPC           M.P.E.C. 2006-B83

Read MPEC 2006-B82 Read MPEC 2006-B84


Our Web policy. Index to the CBAT/MPC/ICQ pages.


Valid HTML 4.01!